This is the latest recevied weather packets stored in our database for station/object EB5AGF-13. If no packets are shown the sender has not sent any weather packets the latest 10 day(s).
| Time | Temp. | Humidity | Pressure | Rain* | Wind** | Luminosity | Snow |
|---|---|---|---|---|---|---|---|
| 1777721404 | 21.11° C | 77% | 1016.8 hPa | 0 mm | 2.24 m/s, 42° | 241 W/m² | - |
| 1777721099 | 21.11° C | 78% | 1016.7 hPa | 0 mm | 2.24 m/s, 35° | 248 W/m² | - |
| 1777720795 | 21.67° C | 76% | 1016.6 hPa | 0 mm | 1.34 m/s, 117° | 312 W/m² | - |
| 1777720491 | 21.67° C | 77% | 1016.6 hPa | 0 mm | 1.34 m/s, 50° | 394 W/m² | - |
| 1777720188 | 21.11° C | 77% | 1016.9 hPa | 0 mm | 1.79 m/s, 55° | 369 W/m² | - |
| 1777719883 | 21.11° C | 77% | 1016.8 hPa | 0 mm | 1.34 m/s, 2° | 207 W/m² | - |
| 1777719579 | 21.11° C | 78% | 1016.8 hPa | 0 mm | 2.24 m/s, 177° | 340 W/m² | - |
| 1777719273 | 20.56° C | 80% | 1016.7 hPa | 0 mm | 1.79 m/s, 56° | 240 W/m² | - |
| 1777718971 | 21.11° C | 79% | 1016.9 hPa | 0 mm | 1.79 m/s, 344° | 216 W/m² | - |
| 1777718667 | 20.56° C | 79% | 1017 hPa | 0 mm | 1.34 m/s, 339° | 276 W/m² | - |
| 1777718363 | 20.56° C | 79% | 1016.9 hPa | 0 mm | 1.34 m/s, 25° | 205 W/m² | - |
| 1777718059 | 20.56° C | 80% | 1017 hPa | 0 mm | 2.68 m/s, 43° | 187 W/m² | - |
| 1777717755 | 20.56° C | 80% | 1017.1 hPa | 0 mm | 2.24 m/s, 2° | 115 W/m² | - |
| 1777717452 | 21.11° C | 79% | 1017.1 hPa | 0 mm | 1.79 m/s, 52° | 152 W/m² | - |
| 1777717147 | 21.11° C | 78% | 1017.2 hPa | 0 mm | 1.79 m/s, 85° | 282 W/m² | - |
| 1777716843 | 21.11° C | 79% | 1017.2 hPa | 0 mm | 1.79 m/s, 339° | 253 W/m² | - |
| 1777716539 | 21.11° C | 78% | 1017.4 hPa | 0 mm | 1.79 m/s, 70° | 322 W/m² | - |
| 1777716235 | 20.56° C | 79% | 1017.5 hPa | 0 mm | 1.34 m/s, 47° | 291 W/m² | - |
| 1777715931 | 20.56° C | 80% | 1017.2 hPa | 0 mm | 1.79 m/s, 85° | 152 W/m² | - |
| 1777715627 | 20.56° C | 80% | 1017.4 hPa | 0 mm | 1.79 m/s, 47° | 188 W/m² | - |
| 1777715313 | 20° C | 80% | 1017.4 hPa | 0 mm | 1.79 m/s, 47° | 191 W/m² | - |
| 1777715012 | 20° C | 80% | 1017.4 hPa | 0 mm | 1.34 m/s, 33° | 193 W/m² | - |
| 1777714712 | 20° C | 81% | 1017.4 hPa | 0 mm | 1.79 m/s, 57° | 195 W/m² | - |
| 1777714411 | 20° C | 82% | 1017.4 hPa | 0 mm | 0.89 m/s, 54° | 185 W/m² | - |
| 1777714107 | 20° C | 82% | 1017.4 hPa | 0 mm | 1.34 m/s, 351° | 169 W/m² | - |
* Rain latest hour (hover to see other rain measurements)
** Current wind speed in m/s (hover to see current wind gust speed)